Location: Rosenheim
(47.8408°N, 12.2113°E)
Time: 08:35:02
(UTC+01:00)

ISS - Pass Details

Date: 05 January 2018
Orbit: 402 x 406 km, 51.6° (Epoch: 16 January)

Event Time Altitude Azimuth Distance (km) Brightness Sun altitude
Exits shadow 06:05:46 42° 349° (N) 590 -3.3 -18.3°
Maximum altitude 06:05:51 42° 354° (N) 589 -3.2 -18.3°
Drops below altitude 10° 06:09:00 10° 67° (ENE) 1,469 -0.2 -17.8°
Sets 06:11:10 0° 75° (ENE) 2,331 1.1 -17.4°
